Regional Weather Roundup
Issued by NWS

Home | Current Version | Previous Version | Text Only | Print | Product List | Glossary On
Versions: 1 2 3 4 5 6 7 8 9 10 11 12 13 14 15 16 17 18 19 20 21 22 23 24 25 26 27 28 29 30 31 32 33 34 35 36 37 38 39 40 41 42 43 44 45 46 47 48 49 50
000
ASUS43 KDTX 211610
RWRMI
MICHIGAN HOURLY REGIONAL WEATHER ROUNDUP
NATIONAL WEATHER SERVICE DETROIT/PONTIAC MI
1200 PM EDT MON AUG 21 2017

NOTE: "FAIR" INDICATES FEW OR NO CLOUDS BELOW 12,000 FEET WITH NO
SIGNIFICANT WEATHER AND/OR OBSTRUCTION TO VISIBILITY.

MIZ047>049-052>055-059>063-066>070-074>076-081>083-211700-
SOUTHEAST LOWER MICHIGAN

CITY           SKY/WX    TMP DP  RH WIND       PRES   REMARKS
ADRIAN         PTSUNNY   83  47  28 S9        30.11S
ALMA           MOSUNNY   82  65  57 CALM      30.07F
ANN ARBOR      MOSUNNY   85  66  53 S9        30.10S
BAD AXE        SUNNY     82  67  62 W6        30.09F
CARO           MOSUNNY   84  67  57 W3        30.08S
DETROIT CITY   MOSUNNY   85  66  53 SE6       30.10S
DETROIT        MOSUNNY   85  66  53 S7        30.10S
FLINT          SUNNY     84  67  56 CALM      30.09S
GROSSE ILE     SUNNY     79  71  78 S6        30.10S
HILLSDALE      CLOUDY    82  68  61 S6        30.11S
HOWELL         SUNNY     84  65  52 S7        30.10S

CITY           SKY/WX    TMP DP  RH WIND       PRES   REMARKS
JACKSON        SUNNY     84  66  54 S7        30.09F
LAMBERTVILLE   SUNNY     84  66  54 S7        30.10S
LANSING        SUNNY     83  66  56 CALM      30.08F
LAPEER         FAIR      85  63  47 W7        30.10S
MASON          SUNNY     86  67  53 CALM      30.08F
MONROE         CLOUDY    83  68  59 S6        30.09F
MT. CLEMENS    MOSUNNY   84  73  70 SE7       30.08F HX  90
PONTIAC        MOSUNNY   84  62  47 S5        30.09F
PORT HOPE        N/A     80  69  69 VRB3      30.07R
PORT HURON     SUNNY     86  63  45 SW3       30.09F
TRI CITIES     MOSUNNY   81  70  69 SW6       30.08S
MIDLAND        FAIR      83  68  59 SW5       30.06F
TROY           MOSUNNY   85  62  45 CALM      30.11S
SAGINAW HB     CLOUDY    81  68  65 SW6       30.07S
$$
MIZ043>046-050>051-056>058-064>065-071>073-077>080-211700-
SOUTHWEST LOWER MICHIGAN

CITY           SKY/WX    TMP DP  RH WIND       PRES   REMARKS
BATTLE CREEK   PTSUNNY   83  70  64 VRB7      30.09S
BENTON HARBOR  CLOUDY    80  69  69 W12       30.08R
BIG RAPIDS     CLOUDY    80  67  64 CALM      30.07S
COLDWATER      CLOUDY    83  69  61 S6        30.09S
FREMONT        FAIR      80  71  74 NW3       30.05F
HOLLAND        MOSUNNY   81  70  69 W8        30.08R
GRAND RAPIDS   PTSUNNY   82  69  64 VRB5      30.07S
IONIA          FAIR      81  66  60 S5        30.06F
KALAMAZOO      PTSUNNY   84  67  56 SW7       30.08S
LUDINGTON      PTSUNNY   78  69  73 W5        30.04F
MARSHALL       SUNNY     84  68  58 SW8       30.08F
MOUNT PLEASANT CLOUDY    85  67  54 W5        30.06S
MUSKEGON       CLOUDY    80  69  69 SW8       30.06S
SOUTH HAVEN    MOSUNNY   78  71  78 SW13      30.08R
$$
MIZ016>042-211700-
NORTHERN LOWER MICHIGAN

CITY           SKY/WX    TMP DP  RH WIND       PRES   REMARKS
ALPENA         MOSUNNY   78  69  73 CALM      30.06S
BEAVER ISLAND  CLOUDY    76  65  70 CALM      30.05S
BELLAIRE       MOSUNNY   77  66  68 SW5       30.06R
CADILLAC       CLOUDY    82  65  55 SW5       30.08S
CHARLEVOIX     CLOUDY    78  70  77 SW7       30.08R
FRANKFORT      MOSUNNY   76  70  81 SW5       30.05S
GAYLORD        PTSUNNY   76  66  71 W9        30.08S
GRAYLING       CLOUDY    81  64  55 SW7       30.08S HAZE
HARBOR SPRINGS SUNNY     75  69  81 SW5       30.05R
HOUGHTON LAKE  CLOUDY    78  66  66 SW5       30.09S
MANISTEE       CLOUDY    79  68  69 CALM      30.04F
OSCODA         CLOUDY    85  61  44 W9        30.05F
PELLSTON       SUNNY     80  64  58 S3        30.04F
ROGERS CITY    SUNNY     75  68  80 N5        30.06S
TRAVERSE CITY  CLOUDY    81  66  60 VRB3      30.04R
$$
MIZ007>008-015-211700-
EASTERN UPPER MICHIGAN

CITY           SKY/WX    TMP DP  RH WIND       PRES   REMARKS
KINROSS        PTSUNNY   78  62  57 VRB3      30.04F
MACKINAC ISLAN SUNNY     73  71  93 W6        30.05S
NEWBERRY       SUNNY     76  58  54 W3        30.04S
S. S. MARIE    SUNNY     76  61  59 VRB7      30.03F
MUNISING         N/A     72  63  73 NE8       30.04R
$$
MIZ004>006-011>014-085-211700-
CENTRAL UPPER MICHIGAN

CITY           SKY/WX    TMP DP  RH WIND       PRES   REMARKS
MANISTIQUE     MOSUNNY   78  55  45 CALM      30.04S
ESCANABA       MOSUNNY   77  60  55 CALM      30.04S
MENOMINEE      CLOUDY    77  59  53 MISG      30.05S
SAWYER-GWINN   SUNNY     73  54  49 CALM      30.06R
$$
MIZ001>003-009>011-084-211700-
WESTERN UPPER MICHIGAN

CITY           SKY/WX    TMP DP  RH WIND       PRES   REMARKS
IRON MOUNTAIN  SUNNY     76  52  43 CALM      30.04F
HOUGHTON       MOSUNNY   68  55  63 W6        30.04S
COPPER HARBOR    N/A     65  58  78 N10       30.03R
IRONWOOD       MOSUNNY   72  53  51 VRB3      30.05F
$$

ABBREVIATIONS USED IN REMARKS
   TC - TEMPERATURE IN CELSIUS
  WCI - WIND CHILL INDEX
   HX - HEAT INDEX
  VSB - VISIBILITY





USA.gov is the U.S. government's official web portal to all federal, state and local government web resources and services.